TimeEDT,TemperatureF,Dew PointF,Humidity,Sea Level PressureIn,VisibilityMPH,Wind Direction,Wind SpeedMPH,Gust SpeedMPH,PrecipitationIn,Events,Conditions,WindDirDegrees,DateUTC
12:16 AM,32.4,26.6,79,29.87,10.0,West,5.8,-,N/A,Snow,Light Snow,280,2013-03-15 04:16:00
12:37 AM,32.0,26.8,81,29.86,10.0,West,4.6,-,N/A,,Overcast,270,2013-03-15 04:37:00
12:57 AM,32.0,27.3,83,29.86,10.0,West,5.8,-,N/A,,Overcast,270,2013-03-15 04:57:00
1:16 AM,32.0,27.7,84,29.86,10.0,West,5.8,-,N/A,,Overcast,280,2013-03-15 05:16:00
1:37 AM,32.0,28.0,85,29.85,7.0,West,5.8,-,N/A,Snow,Light Snow,280,2013-03-15 05:37:00
1:57 AM,32.0,28.2,86,29.85,10.0,West,5.8,-,N/A,,Overcast,280,2013-03-15 05:57:00
2:16 AM,32.0,28.6,87,29.85,10.0,West,6.9,-,N/A,,Overcast,280,2013-03-15 06:16:00
2:37 AM,32.0,28.9,88,29.84,10.0,WNW,6.9,-,N/A,,Overcast,300,2013-03-15 06:37:00
2:56 AM,32.2,29.1,88,29.84,10.0,NW,4.6,-,N/A,,Overcast,310,2013-03-15 06:56:00
3:17 AM,32.9,29.3,87,29.84,10.0,NNW,11.5,-,N/A,,Overcast,330,2013-03-15 07:17:00
3:37 AM,33.8,30.2,87,29.84,10.0,North,16.1,20.7,N/A,,Overcast,360,2013-03-15 07:37:00
3:56 AM,29.3,26.4,89,29.84,4.0,North,24.2,28.8,N/A,Snow,Light Snow,10,2013-03-15 07:56:00
4:17 AM,28.6,25.3,88,29.85,7.0,North,18.4,29.9,N/A,,Overcast,10,2013-03-15 08:17:00
4:37 AM,28.4,24.8,86,29.85,10.0,North,20.7,24.2,N/A,,Overcast,10,2013-03-15 08:37:00
4:56 AM,27.5,23.9,86,29.85,10.0,NNE,20.7,-,N/A,,Overcast,20,2013-03-15 08:56:00
5:17 AM,27.1,23.5,86,29.85,10.0,North,16.1,-,N/A,,Overcast,10,2013-03-15 09:17:00
5:36 AM,27.0,22.3,83,29.86,10.0,North,15.0,23.0,N/A,,Overcast,10,2013-03-15 09:36:00
5:57 AM,26.8,21.9,82,29.86,10.0,North,15.0,-,N/A,,Overcast,360,2013-03-15 09:57:00
6:50 AM,26.6,19.4,74,29.87,10.0,North,15.0,-,N/A,,Overcast,10,2013-03-15 10:50:00
7:50 AM,24.8,19.4,80,29.89,10.0,North,13.8,19.6,N/A,,Overcast,360,2013-03-15 11:50:00
8:50 AM,24.8,17.6,74,29.92,10.0,North,11.5,-,N/A,,Overcast,360,2013-03-15 12:50:00
9:50 AM,23.0,15.8,74,29.93,7.0,NNW,13.8,19.6,N/A,Snow,Light Snow,340,2013-03-15 13:50:00
10:15 AM,23.0,17.6,80,29.93,1.5,North,18.4,-,N/A,Snow,Light Snow,10,2013-03-15 14:15:00
10:50 AM,21.2,17.6,86,29.94,1.2,North,18.4,-,N/A,Snow,Light Snow,10,2013-03-15 14:50:00
11:50 AM,21.2,17.6,86,29.94,1.2,North,16.1,-,N/A,Snow,Light Snow,10,2013-03-15 15:50:00
12:50 PM,21.2,14.0,74,29.94,5.0,NNE,19.6,-,N/A,Snow,Light Snow,20,2013-03-15 16:50:00
1:50 PM,21.2,14.0,74,29.95,5.0,North,17.3,-,N/A,Snow,Light Snow,360,2013-03-15 17:50:00
2:50 PM,19.4,12.2,74,29.95,7.0,North,16.1,-,N/A,Snow,Light Snow,10,2013-03-15 18:50:00
3:50 PM,19.4,12.2,74,29.94,10.0,NNE,18.4,21.9,N/A,Snow,Light Snow,20,2013-03-15 19:50:00
4:50 PM,17.6,10.4,73,29.94,10.0,North,16.1,-,N/A,,Mostly Cloudy,10,2013-03-15 20:50:00
5:55 PM,17.6,8.6,68,29.94,10.0,NNE,13.8,-,N/A,,Overcast,20,2013-03-15 21:55:00
6:50 PM,15.8,8.6,73,29.95,10.0,North,16.1,-,N/A,,Mostly Cloudy,360,2013-03-15 22:50:00
7:55 PM,15.8,8.6,73,29.95,7.0,North,9.2,-,N/A,Snow,Light Snow,350,2013-03-15 23:55:00
8:55 PM,15.8,10.4,79,29.96,4.0,North,8.1,-,N/A,Snow,Light Snow,360,2013-03-16 00:55:00
9:50 PM,15.8,10.4,79,29.95,5.0,NNW,5.8,-,N/A,Snow,Light Snow,340,2013-03-16 01:50:00
10:17 PM,14.9,10.8,84,29.95,4.0,NNW,8.1,-,N/A,Snow,Light Snow,330,2013-03-16 02:17:00
10:37 PM,14.9,11.3,86,29.95,3.0,NNW,6.9,-,N/A,Snow,Light Snow,340,2013-03-16 02:37:00
10:56 PM,14.7,11.3,86,29.95,3.0,NNW,5.8,-,N/A,Snow,Light Snow,340,2013-03-16 02:56:00
11:17 PM,14.7,11.3,86,29.95,4.0,NNW,5.8,-,N/A,Snow,Light Snow,340,2013-03-16 03:17:00
11:36 PM,14.5,11.1,86,29.95,7.0,NNW,6.9,-,N/A,Snow,Light Snow,340,2013-03-16 03:36:00
11:57 PM,14.5,11.3,87,29.95,5.0,NNW,5.8,-,N/A,Snow,Light Snow,340,2013-03-16 03:57:00